Data supplied by UK-AIR on 17/3/2021
All Data GMT hour ending 
Status: R =Ratified P=Provisional,P*=As supplied
,,Exeter Roadside,,,,,,,,,,,,,,,,,,,,,,,
Date,time,"Nitric oxide",status,unit,"Nitrogen dioxide",status,unit,"Nitrogen oxides as nitrogen dioxide",status,unit,"Ozone",status,unit
 
01-01-2020,01:00,23.66072,R,ugm-3,29.63612,R,ugm-3,65.91540,R,ugm-3,16.68804,R,ugm-3
01-01-2020,02:00,23.53652,R,ugm-3,30.44527,R,ugm-3,66.53409,R,ugm-3,15.28642,R,ugm-3
01-01-2020,03:00,21.23876,R,ugm-3,27.63867,R,ugm-3,60.20431,R,ugm-3,14.32281,R,ugm-3
01-01-2020,04:00,14.37653,R,ugm-3,19.12367,R,ugm-3,41.16738,R,ugm-3,16.42524,R,ugm-3
01-01-2020,05:00,7.54535,R,ugm-3,13.70216,R,ugm-3,25.27153,R,ugm-3,18.44006,R,ugm-3
01-01-2020,06:00,3.32244,R,ugm-3,12.37206,R,ugm-3,17.46639,R,ugm-3,16.99464,R,ugm-3
01-01-2020,07:00,10.71253,R,ugm-3,18.69750,R,ugm-3,35.12315,R,ugm-3,11.03776,R,ugm-3
01-01-2020,08:00,12.07877,R,ugm-3,27.16813,R,ugm-3,45.68865,R,ugm-3,6.83290,R,ugm-3
01-01-2020,09:00,14.28338,R,ugm-3,20.83705,R,ugm-3,42.73792,R,ugm-3,6.39489,R,ugm-3
01-01-2020,10:00,19.90358,R,ugm-3,20.35782,R,ugm-3,50.87621,R,ugm-3,7.53371,R,ugm-3
01-01-2020,11:00,47.07304,R,ugm-3,31.57365,R,ugm-3,103.75131,R,ugm-3,2.58424,R,ugm-3
01-01-2020,12:00,25.30642,R,ugm-3,31.96718,R,ugm-3,70.76981,R,ugm-3,6.70150,R,ugm-3
01-01-2020,13:00,20.46249,R,ugm-3,25.78302,R,ugm-3,57.15840,R,ugm-3,21.81271,R,ugm-3
01-01-2020,14:00,13.41395,R,ugm-3,20.26646,R,ugm-3,40.83423,R,ugm-3,25.22916,R,ugm-3
01-01-2020,15:00,13.13450,R,ugm-3,20.88532,R,ugm-3,41.02460,R,ugm-3,25.31676,R,ugm-3
01-01-2020,16:00,15.64961,R,ugm-3,28.73658,R,ugm-3,52.73231,R,ugm-3,20.84910,R,ugm-3
01-01-2020,17:00,15.24595,R,ugm-3,32.97253,R,ugm-3,56.34933,R,ugm-3,19.14087,R,ugm-3
01-01-2020,18:00,11.17830,R,ugm-3,28.12051,R,ugm-3,45.26032,R,ugm-3,21.11190,R,ugm-3
01-01-2020,19:00,12.97924,R,ugm-3,29.78518,R,ugm-3,49.68641,R,ugm-3,17.65165,R,ugm-3
01-01-2020,20:00,12.91714,R,ugm-3,23.69339,R,ugm-3,43.49940,R,ugm-3,23.12673,R,ugm-3
01-01-2020,21:00,10.24677,R,ugm-3,20.93461,R,ugm-3,36.64610,R,ugm-3,24.39695,R,ugm-3
01-01-2020,22:00,9.93626,R,ugm-3,22.02941,R,ugm-3,37.26480,R,ugm-3,21.11190,R,ugm-3
01-01-2020,23:00,7.29694,R,ugm-3,18.41395,R,ugm-3,29.60244,R,ugm-3,23.08293,R,ugm-3
01-01-2020,24:00,2.32881,R,ugm-3,19.27353,R,ugm-3,22.84433,R,ugm-3,19.27228,R,ugm-3
02-01-2020,01:00,2.20341,R,ugm-3,19.72823,R,ugm-3,23.10674,R,ugm-3,15.33022,R,ugm-3
02-01-2020,02:00,0.49654,R,ugm-3,11.12483,R,ugm-3,11.88618,R,ugm-3,27.63820,R,ugm-3
02-01-2020,03:00,1.24136,R,ugm-3,13.50111,R,ugm-3,15.40449,R,ugm-3,20.93670,R,ugm-3
02-01-2020,04:00,1.89307,R,ugm-3,11.59848,R,ugm-3,14.50114,R,ugm-3,28.82081,R,ugm-3
02-01-2020,05:00,20.60650,R,ugm-3,12.66795,R,ugm-3,44.26415,R,ugm-3,39.15776,R,ugm-3
02-01-2020,06:00,4.53095,R,ugm-3,18.86944,R,ugm-3,25.81679,R,ugm-3,34.29589,R,ugm-3
02-01-2020,07:00,8.68949,R,ugm-3,27.99268,R,ugm-3,41.31637,R,ugm-3,38.36935,R,ugm-3
02-01-2020,08:00,8.62742,R,ugm-3,25.56798,R,ugm-3,38.79650,R,ugm-3,43.88823,R,ugm-3
02-01-2020,09:00,6.36195,R,ugm-3,21.19677,R,ugm-3,30.95162,R,ugm-3,50.76493,R,ugm-3
02-01-2020,10:00,5.49300,R,ugm-3,18.10748,R,ugm-3,26.52996,R,ugm-3,56.50281,R,ugm-3
02-01-2020,11:00,12.63079,R,ugm-3,28.89096,R,ugm-3,48.25790,R,ugm-3,43.84443,R,ugm-3
02-01-2020,12:00,16.47899,R,ugm-3,27.03177,R,ugm-3,52.29921,R,ugm-3,44.19483,R,ugm-3
02-01-2020,13:00,26.81328,R,ugm-3,28.15956,R,ugm-3,69.27267,R,ugm-3,44.19483,R,ugm-3
02-01-2020,14:00,6.79642,R,ugm-3,18.48616,R,ugm-3,28.90720,R,ugm-3,54.26898,R,ugm-3
02-01-2020,15:00,8.16191,R,ugm-3,24.04714,R,ugm-3,36.56190,R,ugm-3,51.68474,R,ugm-3
02-01-2020,16:00,6.98263,R,ugm-3,23.62076,R,ugm-3,34.32730,R,ugm-3,51.33433,R,ugm-3
02-01-2020,17:00,10.08601,R,ugm-3,28.41878,R,ugm-3,43.88379,R,ugm-3,44.93944,R,ugm-3
02-01-2020,18:00,4.71715,R,ugm-3,15.96897,R,ugm-3,23.20183,R,ugm-3,54.96979,R,ugm-3
02-01-2020,19:00,1.83100,R,ugm-3,6.74900,R,ugm-3,9.55649,R,ugm-3,63.07290,R,ugm-3
02-01-2020,20:00,1.11722,R,ugm-3,5.37112,R,ugm-3,7.08417,R,ugm-3,62.06549,R,ugm-3
02-01-2020,21:00,1.52066,R,ugm-3,8.69873,R,ugm-3,11.03038,R,ugm-3,57.64162,R,ugm-3
02-01-2020,22:00,1.05515,R,ugm-3,5.46629,R,ugm-3,7.08417,R,ugm-3,59.74405,R,ugm-3
02-01-2020,23:00,0.65171,R,ugm-3,3.08957,R,ugm-3,4.08885,R,ugm-3,60.66387,R,ugm-3
02-01-2020,24:00,0.74481,R,ugm-3,1.56802,R,ugm-3,2.71005,R,ugm-3,64.34312,R,ugm-3
03-01-2020,01:00,0.52729,R,ugm-3,0.94890,R,ugm-3,1.75739,R,ugm-3,66.79596,R,ugm-3
03-01-2020,02:00,0.62034,R,ugm-3,0.80622,R,ugm-3,1.75739,R,ugm-3,67.19016,R,ugm-3
03-01-2020,03:00,1.05458,R,ugm-3,1.56531,R,ugm-3,3.18231,R,ugm-3,65.26293,R,ugm-3
03-01-2020,04:00,0.62034,R,ugm-3,2.70611,R,ugm-3,3.65728,R,ugm-3,61.71508,R,ugm-3
03-01-2020,05:00,1.33373,R,ugm-3,4.03461,R,ugm-3,6.07963,R,ugm-3,61.67128,R,ugm-3
03-01-2020,06:00,3.44288,R,ugm-3,8.92263,R,ugm-3,14.20164,R,ugm-3,55.05739,R,ugm-3
03-01-2020,07:00,14.14373,R,ugm-3,32.41247,R,ugm-3,54.09922,R,ugm-3,44.58904,R,ugm-3
03-01-2020,08:00,10.91797,R,ugm-3,16.88731,R,ugm-3,33.62796,R,ugm-3,58.16723,R,ugm-3
03-01-2020,09:00,20.59526,R,ugm-3,22.18779,R,ugm-3,53.76674,R,ugm-3,55.93340,R,ugm-3
03-01-2020,10:00,24.84458,R,ugm-3,26.45410,R,ugm-3,64.54859,R,ugm-3,52.21035,R,ugm-3
03-01-2020,11:00,30.45865,R,ugm-3,28.29535,R,ugm-3,74.99796,R,ugm-3,50.28312,R,ugm-3
03-01-2020,12:00,36.84814,R,ugm-3,33.07988,R,ugm-3,89.57957,R,ugm-3,47.78648,R,ugm-3
03-01-2020,13:00,37.59255,R,ugm-3,33.36338,R,ugm-3,91.00449,R,ugm-3,47.65508,R,ugm-3
03-01-2020,14:00,37.46848,R,ugm-3,37.49588,R,ugm-3,94.94675,R,ugm-3,45.24605,R,ugm-3
03-01-2020,15:00,40.01187,R,ugm-3,37.49083,R,ugm-3,98.84151,R,ugm-3,43.05602,R,ugm-3
03-01-2020,16:00,34.14967,R,ugm-3,37.40747,R,ugm-3,89.76956,R,ugm-3,41.30399,R,ugm-3
03-01-2020,17:00,53.53526,R,ugm-3,61.68753,R,ugm-3,143.77379,R,ugm-3,23.47714,R,ugm-3
03-01-2020,18:00,54.18662,R,ugm-3,59.16889,R,ugm-3,142.25388,R,ugm-3,17.08224,R,ugm-3
03-01-2020,19:00,29.65221,R,ugm-3,50.95307,R,ugm-3,96.41916,R,ugm-3,22.42592,R,ugm-3
03-01-2020,20:00,36.38289,R,ugm-3,52.12715,R,ugm-3,107.91346,R,ugm-3,15.94343,R,ugm-3
03-01-2020,21:00,22.76644,R,ugm-3,48.21190,R,ugm-3,83.11996,R,ugm-3,17.47645,R,ugm-3
03-01-2020,22:00,21.58780,R,ugm-3,41.75463,R,ugm-3,74.85546,R,ugm-3,23.12673,R,ugm-3
03-01-2020,23:00,26.30238,R,ugm-3,37.04306,R,ugm-3,77.37281,R,ugm-3,25.75477,R,ugm-3
03-01-2020,24:00,8.09543,R,ugm-3,29.09967,R,ugm-3,41.51248,R,ugm-3,32.28106,R,ugm-3
04-01-2020,01:00,12.02801,R,ugm-3,30.95225,R,ugm-3,49.39494,R,ugm-3,27.37539,R,ugm-3
04-01-2020,02:00,6.01400,R,ugm-3,24.94231,R,ugm-3,34.16365,R,ugm-3,33.28848,R,ugm-3
04-01-2020,03:00,8.09101,R,ugm-3,22.13721,R,ugm-3,34.54324,R,ugm-3,32.63147,R,ugm-3
04-01-2020,04:00,15.25201,R,ugm-3,33.69567,R,ugm-3,57.08176,R,ugm-3,15.06742,R,ugm-3
04-01-2020,05:00,4.61900,R,ugm-3,13.41582,R,ugm-3,20.49819,R,ugm-3,50.58972,R,ugm-3
04-01-2020,06:00,5.98300,R,ugm-3,13.88665,R,ugm-3,23.06046,R,ugm-3,50.15172,R,ugm-3
04-01-2020,07:00,10.23001,R,ugm-3,26.97132,R,ugm-3,42.65711,R,ugm-3,43.88823,R,ugm-3
04-01-2020,08:00,9.98201,R,ugm-3,24.64696,R,ugm-3,39.95249,R,ugm-3,38.85116,R,ugm-3
04-01-2020,09:00,14.29101,R,ugm-3,27.90941,R,ugm-3,49.82199,R,ugm-3,40.77838,R,ugm-3
04-01-2020,10:00,19.31301,R,ugm-3,36.81644,R,ugm-3,66.42932,R,ugm-3,39.07016,R,ugm-3
04-01-2020,11:00,24.49002,R,ugm-3,31.29841,R,ugm-3,68.84924,R,ugm-3,42.35521,R,ugm-3
04-01-2020,12:00,11.87301,R,ugm-3,24.07249,R,ugm-3,42.27752,R,ugm-3,52.12275,R,ugm-3
04-01-2020,13:00,12.09001,R,ugm-3,19.94380,R,ugm-3,38.48155,R,ugm-3,55.71440,R,ugm-3
04-01-2020,14:00,9.76501,R,ugm-3,19.80769,R,ugm-3,34.78049,R,ugm-3,55.45159,R,ugm-3
04-01-2020,15:00,16.74001,R,ugm-3,28.99418,R,ugm-3,54.66184,R,ugm-3,47.26088,R,ugm-3
04-01-2020,16:00,27.34202,R,ugm-3,37.31684,R,ugm-3,79.24069,R,ugm-3,38.63215,R,ugm-3
04-01-2020,17:00,28.52002,R,ugm-3,42.01118,R,ugm-3,85.74127,R,ugm-3,32.93807,R,ugm-3
04-01-2020,18:00,55.86204,R,ugm-3,63.47988,R,ugm-3,149.13382,R,ugm-3,15.19882,R,ugm-3
04-01-2020,19:00,20.67702,R,ugm-3,44.54705,R,ugm-3,76.25137,R,ugm-3,30.79184,R,ugm-3
04-01-2020,20:00,20.98702,R,ugm-3,39.65892,R,ugm-3,71.83856,R,ugm-3,29.74063,R,ugm-3
04-01-2020,21:00,12.49301,R,ugm-3,33.98777,R,ugm-3,53.14345,R,ugm-3,34.86530,R,ugm-3
04-01-2020,22:00,27.74502,R,ugm-3,26.68707,R,ugm-3,69.22884,R,ugm-3,45.64025,R,ugm-3
04-01-2020,23:00,13.20601,R,ugm-3,23.21482,R,ugm-3,43.46375,R,ugm-3,42.48661,R,ugm-3
04-01-2020,24:00,11.09801,R,ugm-3,23.17303,R,ugm-3,40.18974,R,ugm-3,44.10723,R,ugm-3
05-01-2020,01:00,2.29275,R,ugm-3,15.16085,R,ugm-3,18.67635,R,ugm-3,47.30468,R,ugm-3
05-01-2020,02:00,1.42522,R,ugm-3,10.70801,R,ugm-3,12.89332,R,ugm-3,50.89633,R,ugm-3
05-01-2020,03:00,3.16028,R,ugm-3,13.21444,R,ugm-3,18.06012,R,ugm-3,49.88891,R,ugm-3
05-01-2020,04:00,1.33227,R,ugm-3,6.91617,R,ugm-3,8.95896,R,ugm-3,62.37209,R,ugm-3
05-01-2020,05:00,0.68163,R,ugm-3,4.88009,R,ugm-3,5.92524,R,ugm-3,67.89097,R,ugm-3
05-01-2020,06:00,1.20834,R,ugm-3,4.83091,R,ugm-3,6.68367,R,ugm-3,73.49745,R,ugm-3
05-01-2020,07:00,1.70407,R,ugm-3,8.24217,R,ugm-3,10.85504,R,ugm-3,67.14636,R,ugm-3
05-01-2020,08:00,3.09831,R,ugm-3,20.37233,R,ugm-3,25.12301,R,ugm-3,50.58972,R,ugm-3
05-01-2020,09:00,6.56842,R,ugm-3,29.36695,R,ugm-3,39.43838,R,ugm-3,39.24536,R,ugm-3
05-01-2020,10:00,10.62720,R,ugm-3,34.28302,R,ugm-3,50.57783,R,ugm-3,33.72648,R,ugm-3
05-01-2020,11:00,24.41467,R,ugm-3,45.04400,R,ugm-3,82.47931,R,ugm-3,31.58025,R,ugm-3
05-01-2020,12:00,8.58232,R,ugm-3,25.47318,R,ugm-3,38.63255,R,ugm-3,53.26156,R,ugm-3
05-01-2020,13:00,9.01608,R,ugm-3,30.30671,R,ugm-3,44.13117,R,ugm-3,49.66991,R,ugm-3
05-01-2020,14:00,24.01190,R,ugm-3,44.47654,R,ugm-3,81.29426,R,ugm-3,34.25209,R,ugm-3
05-01-2020,15:00,18.96165,R,ugm-3,40.27486,R,ugm-3,69.34898,R,ugm-3,36.57352,R,ugm-3
05-01-2020,16:00,9.17099,R,ugm-3,32.91329,R,ugm-3,46.97528,R,ugm-3,46.07826,R,ugm-3
05-01-2020,17:00,18.83772,R,ugm-3,53.16859,R,ugm-3,82.05269,R,ugm-3,24.83496,R,ugm-3
05-01-2020,18:00,6.44448,R,ugm-3,40.31721,R,ugm-3,50.19861,R,ugm-3,34.42729,R,ugm-3
05-01-2020,19:00,12.45520,R,ugm-3,37.16835,R,ugm-3,56.26606,R,ugm-3,38.98256,R,ugm-3
05-01-2020,20:00,20.94457,R,ugm-3,36.52340,R,ugm-3,68.63795,R,ugm-3,40.60318,R,ugm-3
05-01-2020,21:00,3.22224,R,ugm-3,18.04922,R,ugm-3,22.98992,R,ugm-3,56.59041,R,ugm-3
05-01-2020,22:00,1.33227,R,ugm-3,10.09210,R,ugm-3,12.13489,R,ugm-3,63.46711,R,ugm-3
05-01-2020,23:00,0.86753,R,ugm-3,7.91318,R,ugm-3,9.24337,R,ugm-3,66.62075,R,ugm-3
05-01-2020,24:00,4.24468,R,ugm-3,10.84067,R,ugm-3,17.34910,R,ugm-3,63.68611,R,ugm-3
06-01-2020,01:00,1.67217,R,ugm-3,8.51694,R,ugm-3,11.08091,R,ugm-3,65.08773,R,ugm-3
06-01-2020,02:00,0.71222,R,ugm-3,9.32589,R,ugm-3,10.41794,R,ugm-3,63.81751,R,ugm-3
06-01-2020,03:00,0.61932,R,ugm-3,2.45989,R,ugm-3,3.40951,R,ugm-3,71.74543,R,ugm-3
06-01-2020,04:00,0.71222,R,ugm-3,2.17539,R,ugm-3,3.26745,R,ugm-3,73.32225,R,ugm-3
06-01-2020,05:00,0.71222,R,ugm-3,3.45395,R,ugm-3,4.54601,R,ugm-3,70.12480,R,ugm-3
06-01-2020,06:00,3.87077,R,ugm-3,15.98994,R,ugm-3,21.92504,R,ugm-3,58.25483,R,ugm-3
06-01-2020,07:00,5.23328,R,ugm-3,22.18779,R,ugm-3,30.21204,R,ugm-3,52.07895,R,ugm-3
06-01-2020,08:00,6.00744,R,ugm-3,22.08992,R,ugm-3,31.30119,R,ugm-3,49.31951,R,ugm-3
06-01-2020,09:00,7.21511,R,ugm-3,22.55853,R,ugm-3,33.62155,R,ugm-3,49.01290,R,ugm-3
06-01-2020,10:00,8.29893,R,ugm-3,23.07500,R,ugm-3,35.79985,R,ugm-3,48.26829,R,ugm-3
06-01-2020,11:00,8.32990,R,ugm-3,21.60689,R,ugm-3,34.37922,R,ugm-3,52.95496,R,ugm-3
06-01-2020,12:00,9.25888,R,ugm-3,23.68668,R,ugm-3,37.88343,R,ugm-3,55.67060,R,ugm-3
06-01-2020,13:00,8.45376,R,ugm-3,23.31114,R,ugm-3,36.27339,R,ugm-3,50.63352,R,ugm-3
06-01-2020,14:00,6.77127,R,ugm-3,16.00966,R,ugm-3,26.39213,R,ugm-3,42.88081,R,ugm-3
06-01-2020,15:00,6.81255,R,ugm-3,16.21470,R,ugm-3,26.66047,R,ugm-3,47.17328,R,ugm-3
06-01-2020,16:00,4.08753,R,ugm-3,13.47928,R,ugm-3,19.74674,R,ugm-3,54.66318,R,ugm-3
06-01-2020,17:00,5.66681,R,ugm-3,17.26117,R,ugm-3,25.95015,R,ugm-3,52.16655,R,ugm-3
06-01-2020,18:00,3.59207,R,ugm-3,14.00220,R,ugm-3,19.50997,R,ugm-3,53.48057,R,ugm-3
06-01-2020,19:00,4.24236,R,ugm-3,18.16672,R,ugm-3,24.67159,R,ugm-3,50.02032,R,ugm-3
06-01-2020,20:00,4.64492,R,ugm-3,14.56615,R,ugm-3,21.68827,R,ugm-3,50.63352,R,ugm-3
06-01-2020,21:00,6.78159,R,ugm-3,22.13411,R,ugm-3,32.53240,R,ugm-3,41.74200,R,ugm-3
06-01-2020,22:00,10.65236,R,ugm-3,27.65875,R,ugm-3,43.99214,R,ugm-3,33.33228,R,ugm-3
06-01-2020,23:00,30.50167,R,ugm-3,46.18791,R,ugm-3,92.95648,R,ugm-3,15.37402,R,ugm-3
06-01-2020,24:00,8.70149,R,ugm-3,25.91461,R,ugm-3,39.25671,R,ugm-3,28.64561,R,ugm-3
07-01-2020,01:00,0.86658,R,ugm-3,8.98412,R,ugm-3,10.31286,R,ugm-3,46.77907,R,ugm-3
07-01-2020,02:00,5.38517,R,ugm-3,14.07162,R,ugm-3,22.32875,R,ugm-3,41.04119,R,ugm-3
07-01-2020,03:00,2.75448,R,ugm-3,12.52309,R,ugm-3,16.74657,R,ugm-3,38.71975,R,ugm-3
07-01-2020,04:00,7.83015,R,ugm-3,16.51986,R,ugm-3,28.52593,R,ugm-3,34.12069,R,ugm-3
07-01-2020,05:00,2.13550,R,ugm-3,13.42488,R,ugm-3,16.69926,R,ugm-3,40.95359,R,ugm-3
07-01-2020,06:00,4.11625,R,ugm-3,17.76761,R,ugm-3,24.07910,R,ugm-3,45.72785,R,ugm-3
07-01-2020,07:00,5.07567,R,ugm-3,28.83278,R,ugm-3,36.61537,R,ugm-3,39.07016,R,ugm-3
07-01-2020,08:00,10.49179,R,ugm-3,33.91598,R,ugm-3,50.00316,R,ugm-3,36.70492,R,ugm-3
07-01-2020,09:00,14.26759,R,ugm-3,34.98596,R,ugm-3,56.86263,R,ugm-3,36.26692,R,ugm-3
07-01-2020,10:00,14.26759,R,ugm-3,33.33023,R,ugm-3,55.20690,R,ugm-3,33.46368,R,ugm-3
07-01-2020,11:00,,,,,,,,,,32.32486,R,ugm-3
07-01-2020,12:00,10.72907,R,ugm-3,26.44039,R,ugm-3,42.89139,R,ugm-3,36.92393,R,ugm-3
07-01-2020,13:00,42.92657,R,ugm-3,43.83706,R,ugm-3,109.65689,R,ugm-3,26.76218,R,ugm-3
07-01-2020,14:00,25.16172,R,ugm-3,32.52118,R,ugm-3,71.10194,R,ugm-3,34.07689,R,ugm-3
07-01-2020,15:00,,,,,,,,,,45.59645,R,ugm-3
07-01-2020,16:00,,,,,,,,,,51.90374,R,ugm-3
07-01-2020,17:00,4.45669,R,ugm-3,13.16146,R,ugm-3,19.99496,R,ugm-3,52.73595,R,ugm-3
07-01-2020,18:00,11.17267,R,ugm-3,22.51181,R,ugm-3,39.64300,R,ugm-3,41.52299,R,ugm-3
07-01-2020,19:00,3.06397,R,ugm-3,14.65041,R,ugm-3,19.34843,R,ugm-3,48.66250,R,ugm-3
07-01-2020,20:00,3.49726,R,ugm-3,11.99916,R,ugm-3,17.36155,R,ugm-3,50.72113,R,ugm-3
07-01-2020,21:00,4.33289,R,ugm-3,12.18439,R,ugm-3,18.82806,R,ugm-3,49.05670,R,ugm-3
07-01-2020,22:00,1.54746,R,ugm-3,6.47361,R,ugm-3,8.84635,R,ugm-3,54.83838,R,ugm-3
07-01-2020,23:00,17.88865,R,ugm-3,6.82115,R,ugm-3,34.25004,R,ugm-3,57.72923,R,ugm-3
07-01-2020,24:00,0.61899,R,ugm-3,2.26776,R,ugm-3,3.21685,R,ugm-3,53.52437,R,ugm-3
08-01-2020,01:00,0.37119,R,ugm-3,1.46299,R,ugm-3,2.03214,R,ugm-3,56.98462,R,ugm-3
08-01-2020,02:00,0.21653,R,ugm-3,0.94399,R,ugm-3,1.27600,R,ugm-3,60.48867,R,ugm-3
08-01-2020,03:00,1.42289,R,ugm-3,3.30033,R,ugm-3,5.48205,R,ugm-3,59.34985,R,ugm-3
08-01-2020,04:00,0.74238,R,ugm-3,4.72183,R,ugm-3,5.86013,R,ugm-3,57.64162,R,ugm-3
08-01-2020,05:00,0.61865,R,ugm-3,3.82459,R,ugm-3,4.77317,R,ugm-3,58.82424,R,ugm-3
08-01-2020,06:00,2.10340,R,ugm-3,15.86750,R,ugm-3,19.09267,R,ugm-3,46.42866,R,ugm-3
08-01-2020,07:00,9.18689,R,ugm-3,24.99688,R,ugm-3,39.08325,R,ugm-3,39.46437,R,ugm-3
08-01-2020,08:00,22.51871,R,ugm-3,44.34719,R,ugm-3,78.87539,R,ugm-3,25.18536,R,ugm-3
08-01-2020,09:00,35.60307,R,ugm-3,52.68748,R,ugm-3,107.27809,R,ugm-3,19.27228,R,ugm-3
08-01-2020,10:00,40.79969,R,ugm-3,56.48694,R,ugm-3,119.04560,R,ugm-3,18.22106,R,ugm-3
08-01-2020,11:00,41.41834,R,ugm-3,60.26427,R,ugm-3,123.77151,R,ugm-3,23.47714,R,ugm-3
08-01-2020,12:00,29.60220,R,ugm-3,41.37824,R,ugm-3,86.76766,R,ugm-3,25.62337,R,ugm-3
08-01-2020,13:00,28.58144,R,ugm-3,38.87912,R,ugm-3,82.70338,R,ugm-3,28.77701,R,ugm-3
08-01-2020,14:00,28.76703,R,ugm-3,42.98964,R,ugm-3,87.09847,R,ugm-3,30.44144,R,ugm-3
08-01-2020,15:00,76.24810,R,ugm-3,59.69503,R,ugm-3,176.60715,R,ugm-3,14.80461,R,ugm-3
08-01-2020,16:00,83.39346,R,ugm-3,63.20024,R,ugm-3,191.06843,R,ugm-3,12.70218,R,ugm-3
08-01-2020,17:00,101.76724,R,ugm-3,69.24307,R,ugm-3,225.28399,R,ugm-3,11.65097,R,ugm-3
08-01-2020,18:00,55.46160,R,ugm-3,60.80156,R,ugm-3,145.84150,R,ugm-3,17.34505,R,ugm-3
08-01-2020,19:00,55.36880,R,ugm-3,60.51852,R,ugm-3,145.41616,R,ugm-3,16.42524,R,ugm-3
08-01-2020,20:00,11.22842,R,ugm-3,21.91384,R,ugm-3,39.13051,R,ugm-3,45.33365,R,ugm-3
08-01-2020,21:00,5.53688,R,ugm-3,13.24941,R,ugm-3,21.73917,R,ugm-3,53.30536,R,ugm-3
08-01-2020,22:00,4.08306,R,ugm-3,11.74510,R,ugm-3,18.00571,R,ugm-3,45.15845,R,ugm-3
08-01-2020,23:00,2.19619,R,ugm-3,5.89533,R,ugm-3,9.26278,R,ugm-3,52.29795,R,ugm-3
08-01-2020,24:00,0.83517,R,ugm-3,2.12207,R,ugm-3,3.40265,R,ugm-3,56.24000,R,ugm-3
09-01-2020,01:00,0.27820,R,ugm-3,1.60362,R,ugm-3,2.03020,R,ugm-3,55.80200,R,ugm-3
09-01-2020,02:00,0.27820,R,ugm-3,1.93412,R,ugm-3,2.36069,R,ugm-3,55.40779,R,ugm-3
09-01-2020,03:00,0.30912,R,ugm-3,0.70638,R,ugm-3,1.18035,R,ugm-3,59.96306,R,ugm-3
09-01-2020,04:00,0.27820,R,ugm-3,0.98984,R,ugm-3,1.41642,R,ugm-3,65.00013,R,ugm-3
09-01-2020,05:00,0.37094,R,ugm-3,1.22536,R,ugm-3,1.79413,R,ugm-3,66.79596,R,ugm-3
09-01-2020,06:00,1.66922,R,ugm-3,6.74169,R,ugm-3,9.30113,R,ugm-3,67.89097,R,ugm-3
09-01-2020,07:00,12.73554,R,ugm-3,27.11973,R,ugm-3,46.64728,R,ugm-3,46.34106,R,ugm-3
09-01-2020,08:00,77.80423,R,ugm-3,74.37302,R,ugm-3,193.67118,R,ugm-3,9.32953,R,ugm-3
09-01-2020,09:00,21.20529,R,ugm-3,39.34515,R,ugm-3,71.85947,R,ugm-3,36.00411,R,ugm-3
09-01-2020,10:00,52.24043,R,ugm-3,51.95625,R,ugm-3,132.05711,R,ugm-3,28.55801,R,ugm-3
09-01-2020,11:00,62.81216,R,ugm-3,51.94083,R,ugm-3,148.25146,R,ugm-3,23.95894,R,ugm-3
09-01-2020,12:00,71.71467,R,ugm-3,61.37808,R,ugm-3,171.33903,R,ugm-3,21.98791,R,ugm-3
09-01-2020,13:00,119.56566,R,ugm-3,80.68835,R,ugm-3,264.01980,R,ugm-3,8.84773,R,ugm-3
09-01-2020,14:00,77.49512,R,ugm-3,58.27493,R,ugm-3,177.09912,R,ugm-3,16.07483,R,ugm-3
09-01-2020,15:00,34.15720,R,ugm-3,38.04086,R,ugm-3,90.41451,R,ugm-3,26.98119,R,ugm-3
09-01-2020,16:00,6.49141,R,ugm-3,23.09633,R,ugm-3,33.04969,R,ugm-3,57.33502,R,ugm-3
09-01-2020,17:00,21.88534,R,ugm-3,39.71883,R,ugm-3,73.27588,R,ugm-3,42.96842,R,ugm-3
09-01-2020,18:00,80.33897,R,ugm-3,75.34950,R,ugm-3,198.53420,R,ugm-3,14.27900,R,ugm-3
09-01-2020,19:00,42.84333,R,ugm-3,60.41598,R,ugm-3,126.10817,R,ugm-3,17.87066,R,ugm-3
09-01-2020,20:00,32.11704,R,ugm-3,39.18608,R,ugm-3,88.43152,R,ugm-3,37.40573,R,ugm-3
09-01-2020,21:00,16.29036,R,ugm-3,25.11569,R,ugm-3,50.09389,R,ugm-3,47.12947,R,ugm-3
09-01-2020,22:00,14.68296,R,ugm-3,21.15925,R,ugm-3,43.67280,R,ugm-3,44.80804,R,ugm-3
09-01-2020,23:00,15.98124,R,ugm-3,22.37912,R,ugm-3,46.88334,R,ugm-3,45.24605,R,ugm-3
09-01-2020,24:00,3.30753,R,ugm-3,6.16542,R,ugm-3,11.23689,R,ugm-3,59.78786,R,ugm-3
10-01-2020,01:00,1.97700,R,ugm-3,5.41182,R,ugm-3,8.44318,R,ugm-3,58.86804,R,ugm-3
10-01-2020,02:00,1.79166,R,ugm-3,4.32812,R,ugm-3,7.07529,R,ugm-3,56.89701,R,ugm-3
10-01-2020,03:00,1.26652,R,ugm-3,3.15224,R,ugm-3,5.09421,R,ugm-3,58.69284,R,ugm-3
10-01-2020,04:00,3.02729,R,ugm-3,4.98062,R,ugm-3,9.62240,R,ugm-3,58.69284,R,ugm-3
10-01-2020,05:00,1.45186,R,ugm-3,4.75480,R,ugm-3,6.98095,R,ugm-3,59.91926,R,ugm-3
10-01-2020,06:00,13.43745,R,ugm-3,19.48951,R,ugm-3,40.09332,R,ugm-3,48.66250,R,ugm-3
10-01-2020,07:00,43.24697,R,ugm-3,48.63880,R,ugm-3,114.94990,R,ugm-3,20.63010,R,ugm-3
10-01-2020,08:00,65.33382,R,ugm-3,67.41294,R,ugm-3,167.59007,R,ugm-3,5.95689,R,ugm-3
10-01-2020,09:00,101.63039,R,ugm-3,72.84233,R,ugm-3,228.67342,R,ugm-3,9.50474,R,ugm-3
10-01-2020,10:00,63.69661,R,ugm-3,53.46145,R,ugm-3,151.12823,R,ugm-3,24.79115,R,ugm-3
10-01-2020,11:00,73.61253,R,ugm-3,53.58706,R,ugm-3,166.45803,R,ugm-3,23.87134,R,ugm-3
10-01-2020,12:00,29.87130,R,ugm-3,33.58275,R,ugm-3,79.38477,R,ugm-3,41.08499,R,ugm-3
10-01-2020,13:00,16.58830,R,ugm-3,25.22404,R,ugm-3,50.65909,R,ugm-3,47.39228,R,ugm-3
10-01-2020,14:00,15.90871,R,ugm-3,26.54909,R,ugm-3,50.94210,R,ugm-3,51.55334,R,ugm-3
10-01-2020,15:00,22.89001,R,ugm-3,33.34414,R,ugm-3,68.44165,R,ugm-3,45.33365,R,ugm-3
10-01-2020,16:00,22.82822,R,ugm-3,42.87259,R,ugm-3,77.87538,R,ugm-3,36.31072,R,ugm-3
10-01-2020,17:00,53.41001,R,ugm-3,76.54515,R,ugm-3,158.43936,R,ugm-3,5.51888,R,ugm-3
10-01-2020,18:00,64.80868,R,ugm-3,75.95380,R,ugm-3,175.32573,R,ugm-3,3.06604,R,ugm-3
10-01-2020,19:00,72.28423,R,ugm-3,78.68921,R,ugm-3,189.52348,R,ugm-3,3.59165,R,ugm-3
10-01-2020,20:00,71.29573,R,ugm-3,80.91242,R,ugm-3,190.23101,R,ugm-3,6.08829,R,ugm-3
10-01-2020,21:00,29.62418,R,ugm-3,58.53651,R,ugm-3,103.95962,R,ugm-3,17.03844,R,ugm-3
10-01-2020,22:00,24.80523,R,ugm-3,41.06761,R,ugm-3,79.10176,R,ugm-3,31.53645,R,ugm-3
10-01-2020,23:00,22.08685,R,ugm-3,49.71675,R,ugm-3,83.58278,R,ugm-3,22.16312,R,ugm-3
10-01-2020,24:00,18.19462,R,ugm-3,13.23300,R,ugm-3,41.13103,R,ugm-3,66.57695,R,ugm-3
11-01-2020,01:00,0.71001,R,ugm-3,4.00066,R,ugm-3,5.08933,R,ugm-3,70.65041,R,ugm-3
11-01-2020,02:00,0.71001,R,ugm-3,3.01107,R,ugm-3,4.09973,R,ugm-3,71.78923,R,ugm-3
11-01-2020,03:00,0.77175,R,ugm-3,4.18874,R,ugm-3,5.37207,R,ugm-3,68.63558,R,ugm-3
11-01-2020,04:00,0.61740,R,ugm-3,3.85992,R,ugm-3,4.80659,R,ugm-3,68.89839,R,ugm-3
11-01-2020,05:00,0.58653,R,ugm-3,2.63492,R,ugm-3,3.53425,R,ugm-3,72.79664,R,ugm-3
11-01-2020,06:00,0.95697,R,ugm-3,4.37597,R,ugm-3,5.84330,R,ugm-3,68.98599,R,ugm-3
11-01-2020,07:00,2.09915,R,ugm-3,8.18520,R,ugm-3,11.40386,R,ugm-3,67.01496,R,ugm-3
11-01-2020,08:00,2.06828,R,ugm-3,11.53117,R,ugm-3,14.70250,R,ugm-3,63.81751,R,ugm-3
11-01-2020,09:00,4.72310,R,ugm-3,15.14163,R,ugm-3,22.38361,R,ugm-3,62.45969,R,ugm-3
11-01-2020,10:00,9.23010,R,ugm-3,19.82334,R,ugm-3,33.97596,R,ugm-3,59.52505,R,ugm-3
11-01-2020,11:00,4.41440,R,ugm-3,12.26920,R,ugm-3,19.03785,R,ugm-3,66.75215,R,ugm-3
11-01-2020,12:00,6.66790,R,ugm-3,16.82485,R,ugm-3,27.04882,R,ugm-3,61.89029,R,ugm-3
11-01-2020,13:00,6.66790,R,ugm-3,18.33280,R,ugm-3,28.55677,R,ugm-3,59.96306,R,ugm-3
11-01-2020,14:00,5.12440,R,ugm-3,14.52630,R,ugm-3,22.38361,R,ugm-3,63.77371,R,ugm-3
11-01-2020,15:00,6.11224,R,ugm-3,17.86534,R,ugm-3,27.23731,R,ugm-3,59.13085,R,ugm-3
11-01-2020,16:00,7.16182,R,ugm-3,19.93164,R,ugm-3,30.91294,R,ugm-3,55.67060,R,ugm-3
11-01-2020,17:00,5.21701,R,ugm-3,15.42101,R,ugm-3,23.42032,R,ugm-3,61.05807,R,ugm-3
11-01-2020,18:00,2.99438,R,ugm-3,9.59282,R,ugm-3,14.18414,R,ugm-3,66.18275,R,ugm-3
11-01-2020,19:00,1.94480,R,ugm-3,6.96104,R,ugm-3,9.94303,R,ugm-3,67.71577,R,ugm-3
11-01-2020,20:00,2.09915,R,ugm-3,7.66685,R,ugm-3,10.88550,R,ugm-3,65.48194,R,ugm-3
11-01-2020,21:00,1.60524,R,ugm-3,5.69102,R,ugm-3,8.15235,R,ugm-3,66.79596,R,ugm-3
11-01-2020,22:00,1.63611,R,ugm-3,6.11492,R,ugm-3,8.62358,R,ugm-3,65.21913,R,ugm-3
11-01-2020,23:00,2.00654,R,ugm-3,6.20665,R,ugm-3,9.28331,R,ugm-3,66.66455,R,ugm-3
11-01-2020,24:00,1.48176,R,ugm-3,5.40912,R,ugm-3,7.68111,R,ugm-3,67.19016,R,ugm-3
12-01-2020,01:00,0.98717,R,ugm-3,3.19417,R,ugm-3,4.70782,R,ugm-3,68.06617,R,ugm-3
12-01-2020,02:00,0.86378,R,ugm-3,2.77136,R,ugm-3,4.09580,R,ugm-3,67.05876,R,ugm-3
12-01-2020,03:00,0.67868,R,ugm-3,2.20776,R,ugm-3,3.24839,R,ugm-3,67.54057,R,ugm-3
12-01-2020,04:00,0.74038,R,ugm-3,1.97193,R,ugm-3,3.10716,R,ugm-3,67.97857,R,ugm-3
12-01-2020,05:00,0.52444,R,ugm-3,1.40855,R,ugm-3,2.21267,R,ugm-3,68.50418,R,ugm-3
12-01-2020,06:00,0.43189,R,ugm-3,0.93844,R,ugm-3,1.60066,R,ugm-3,70.86941,R,ugm-3
12-01-2020,07:00,2.31368,R,ugm-3,5.53849,R,ugm-3,9.08608,R,ugm-3,71.43882,R,ugm-3
12-01-2020,08:00,2.40623,R,ugm-3,3.41930,R,ugm-3,7.10880,R,ugm-3,68.19758,R,ugm-3
12-01-2020,09:00,9.13133,R,ugm-3,8.31386,R,ugm-3,22.31504,R,ugm-3,62.28449,R,ugm-3
12-01-2020,10:00,4.47312,R,ugm-3,7.17060,R,ugm-3,14.02929,R,ugm-3,63.90511,R,ugm-3
12-01-2020,11:00,5.18265,R,ugm-3,7.91872,R,ugm-3,15.86534,R,ugm-3,61.97789,R,ugm-3
12-01-2020,12:00,4.07208,R,ugm-3,8.58585,R,ugm-3,14.82962,R,ugm-3,61.23328,R,ugm-3
12-01-2020,13:00,4.44227,R,ugm-3,8.81856,R,ugm-3,15.62995,R,ugm-3,59.83166,R,ugm-3
12-01-2020,14:00,6.35492,R,ugm-3,12.24143,R,ugm-3,21.98550,R,ugm-3,59.04324,R,ugm-3
12-01-2020,15:00,8.29841,R,ugm-3,11.94490,R,ugm-3,24.66895,R,ugm-3,61.62748,R,ugm-3
12-01-2020,16:00,15.54795,R,ugm-3,17.63600,R,ugm-3,41.47585,R,ugm-3,56.15240,R,ugm-3
12-01-2020,17:00,17.09040,R,ugm-3,22.00311,R,ugm-3,48.20803,R,ugm-3,52.60455,R,ugm-3
12-01-2020,18:00,,,,,,,24.62187,R,ugm-3,50.67733,R,ugm-3
12-01-2020,19:00,,,,,,,23.06829,R,ugm-3,52.34175,R,ugm-3
12-01-2020,20:00,,,,,,,,,,,,
12-01-2020,21:00,,,,,,,,,,,,